This is the latest recevied weather packets stored in our database for station/object KG5EO. If no packets are shown the sender has not sent any weather packets the latest 10 day(s).
| Time | Temp. | Humidity | Pressure | Rain* | Wind** | Luminosity | Snow |
|---|---|---|---|---|---|---|---|
| 1777415472 | 30° C | 16% | 41 hPa | 0 mm | - | - | - |
| 1777415172 | 29.44° C | 17% | 41 hPa | 0 mm | - | - | - |
| 1777414872 | 29.44° C | 14% | 41.1 hPa | 0 mm | - | - | - |
| 1777414573 | 29.44° C | 15% | 41.1 hPa | 0 mm | - | - | - |
| 1777414272 | 29.44° C | 16% | 41.1 hPa | 0 mm | - | - | - |
| 1777413971 | 29.44° C | 18% | 41.1 hPa | 0 mm | - | - | - |
| 1777413671 | 29.44° C | 16% | 41.1 hPa | 0 mm | - | - | - |
| 1777413371 | 28.89° C | 16% | 41.1 hPa | 0 mm | - | - | - |
| 1777413072 | 28.89° C | 15% | 41.1 hPa | 0 mm | - | - | - |
| 1777412771 | 29.44° C | 17% | 41.1 hPa | 0 mm | - | - | - |
| 1777412471 | 29.44° C | 16% | 41.1 hPa | 0 mm | - | - | - |
| 1777412171 | 28.89° C | 19% | 41.1 hPa | 0 mm | - | - | - |
| 1777411870 | 28.89° C | 18% | 41.1 hPa | 0 mm | - | - | - |
| 1777411570 | 28.33° C | 19% | 41.1 hPa | 0 mm | - | - | - |
| 1777411270 | 28.33° C | 17% | 41.1 hPa | 0 mm | - | - | - |
| 1777410970 | 28.33° C | 18% | 41.1 hPa | 0 mm | - | - | - |
| 1777410670 | 28.33° C | 18% | 41.1 hPa | 0 mm | - | - | - |
| 1777410371 | 28.33° C | 16% | 41.1 hPa | 0 mm | - | - | - |
| 1777410070 | 28.89° C | 22% | 41.1 hPa | 0 mm | - | - | - |
| 1777409769 | 28.89° C | 16% | 41.1 hPa | 0 mm | - | - | - |
| 1777409469 | 28.89° C | 18% | 41.1 hPa | 0 mm | - | - | - |
| 1777409169 | 28.33° C | 16% | 41.1 hPa | 0 mm | - | - | - |
| 1777408869 | 27.78° C | 16% | 41.1 hPa | 0 mm | - | - | - |
| 1777408569 | 27.78° C | 19% | 41.1 hPa | 0 mm | - | - | - |
| 1777408269 | 27.78° C | 17% | 41.1 hPa | 0 mm | - | - | - |
* Rain latest hour (hover to see other rain measurements)
** Current wind speed in m/s (hover to see current wind gust speed)